User: anonymous   Login
Location: Fort Worth, Tx
(32.7431°N, 97.3695°W)
Time: 03:44:24
(UTC-04:00)
Language:

Explorer 7 - Orbit

View from above orbital plane
View from above orbital plane
View from above satellite
View from above satellite

Ground track
Ground track

The orbit data is extracted from the following two-line orbital elements,

1    22U 59009A   24170.10963035  .00008546  00000-0  50020-3 0  9991
2    22  50.2789  48.5808 0112918 112.8450 248.4473 15.07346263444509
Epoch (UTC): 18 June 2024 02:37:52
Eccentricity: 0.0112918
inclination: 50.2789°
perigee height: 466 km
apogee height: 622 km
right ascension of ascending node: 48.5808°
argument of perigee: 112.8450°
revolutions per day: 15.07346263
mean anomaly at epoch: 248.4473°
orbit number at epoch: 44450

The dashed part of the orbit path shows where the satellite is in the earth's shadow,  

DLR